STARLINK-11734, 64329

Orbit data source: Space-Track

STARLINK-11734, 64329 is a payload satellite owned by SpaceX/Seattle (US) in LEO that was launched on Tue, 10 Jun 2025 UTC via an FALCON 9 launch vehicle from the Air Force Eastern Test Range (AFETR). Payload-class satellites include a variety of spacecraft equipped with specific instruments for various scientific and technological missions. These include communications satellites like Starlink; space stations such as the ISS; scientific satellites like the Hubble; Earth observation satellites from companies like Planet Labs, Umbra, and HawkEye 360; GPS; miniature CubeSats for education and research; and military/defense satellites.

Loading next visibility...
Identifier
64329, 2025-124N
Orbit
LEO
Last TLE update
9 hours ago
Origin
Manufacturer
SpaceX/Seattle
Mission
Operational spacecraft
Bus & Motor
STARLINK V2M, Unknown motor
Mass
730 kg wet, ~700 kg dry
Launch date (UTC)
2025-06-10 (3 weeks ago)
Launch vehicle
FALCON 9
Launch site
Air Force Eastern Test Range (AFETR)
Object type
Payload
Rocket body
Debris
Shape & HBR
Unknown
Radar Cross Section
Large (>1 m²)

Expand to show TLE details & history

TLE from 9 hours ago
0 STARLINK-11734
1 64329U 25124N   25182.16323119 -.00190322  00000-0 -83708-3 0  9990
2 64329  43.0028 105.5376 0001989 331.2321  28.8441 15.84035020  4281
Epoch: 2025-07-01T03:55Z
TLE epoch observation values (Epoch: 2025-07-01T03:55:03.174Z)
Latitude
-0.00007°
Longitude
127.31167°
Altitude
317.647 km
Speed
7.72 km/s
True Right ascension
07h 02m 09s
True Declination
0° 00' 00"
Sunlit
Object was in daylight at epoch
Visualization orbit readout
Latitude
43.16402°
Longitude
-144.78439°
Altitude
323.162 km
Speed
7.72 km/s
Apparent Right ascension
12h 57m 38s
Apparent Declination
2° 52' 14"
Sunlit
Object is in daylight
Visualization observer readout
Local Sidereal Time
01:01:31
Azimuth
1.424° NNE
Elevation
-47.204°
Doppler factor
1
Orbital elements
Apogee altitude
322.368 km
Perigee altitude
319.703 km
Semi-major axis
6,699.172 km
Eccentricity
0.0002
Inclination
43.0028°
RAAN
105.5376°
Arg. of periapsis
331.2321°
True anomaly
Unknown
Mean anomaly
28.8441°
Eccentric anomaly
Unknown
Mean motion
3.95832 °/min
Orbital period
90.95 mins
BSTAR
-0.00083708
Loading maneuver chart data...
Loading SW <> Apogee altitude chart data...
Loading historical data...
Loading historical data...
Loading historical data...
Loading historical data...
Loading historical data...
Loading historical data...
Loading historical data...

STARLINK-11734 Visibility forecast

Observer location: undefined°, undefined°

Span
Click to sort rows by Start time (UTC) header in descending order
Start Az.
Max El. time (UTC)
Max El. Az.
Max El.
End time (UTC)
End Az.
4 mins2025-07-01 22:17:35.136Z215.762° SW2025-07-01 22:19:35.136Z162.884° S27.526°2025-07-01 22:21:35.136Z93.554° ESE
4 mins2025-07-01 23:53:35.136Z277.644° WNW2025-07-01 23:54:35.136Z308.571° NW36.178°2025-07-01 23:57:35.136Z67.663° E
|